Location: Wawayanda State Park
(41.1833°N, 74.4333°W)
Time: 06:33:31
(UTC-04:00)

Landsat 7 - Visible Passes

Search period start: 02 September 2015 00:00
Search period end: 12 September 2015 00:00
Orbit: 702 x 703 km, 98.2° (Epoch: 01 September)

Date Brightness Start Highest point End Pass type
(mag) Time Alt. Az. Time Alt. Az. Time Alt. Az.
02 Sep 5.1 22:03:49 30° NNE 22:03:49 30° NNE 22:06:45 10° N visible
02 Sep 6.4 23:42:43 16° NW 23:42:43 16° NW 23:43:59 10° NW visible
03 Sep 6.0 21:08:18 12° NE 21:08:18 12° NE 21:09:35 10° NE visible
03 Sep 5.4 22:47:12 33° NNW 22:47:12 33° NNW 22:49:48 10° NNW visible
04 Sep 5.4 21:51:41 24° NE 21:51:41 24° NE 21:54:19 10° N visible
04 Sep 6.3 23:30:34 18° NW 23:30:34 18° NW 23:32:05 10° NW visible
05 Sep 5.4 22:35:03 31° N 22:35:03 31° N 22:37:34 10° N visible
06 Sep 5.6 21:39:33 19° NE 21:39:33 19° NE 21:41:46 10° NNE visible
06 Sep 6.2 23:18:26 20° NW 23:18:26 20° NW 23:20:05 10° NNW visible
07 Sep 5.4 22:22:55 28° N 22:22:55 28° N 22:25:16 10° N visible
08 Sep 5.8 21:27:24 15° NE 21:27:24 15° NE 21:29:05 10° NNE visible
08 Sep 6.1 23:06:17 22° NNW 23:06:17 22° NNW 23:08:01 10° NNW visible
09 Sep 5.6 22:10:47 24° NNE 22:10:47 24° NNE 22:12:55 10° N visible
09 Sep 6.8 23:49:40 11° NW 23:49:40 11° NW 23:49:49 10° NW visible
10 Sep 6.0 21:15:16 12° NE 21:15:16 12° NE 21:16:12 10° NNE visible
10 Sep 6.0 22:54:09 22° NNW 22:54:09 22° NNW 22:55:51 10° NNW visible
11 Sep 5.7 21:58:38 21° NNE 21:58:38 21° NNE 22:00:29 10° N visible
11 Sep 6.8 23:37:31 12° NW 23:37:31 12° NW 23:38:00 10° NW visible
